Concordia, KS

7:17 PM CDT on October 19, 2017 (GMT -0500)
Blosser Municipal

Weather History for KCNK - September, 2013

Change the Weather History Date:

Tuesday, September 24, 2013

  Actual Average Record
Temperature  
Mean Temperature 65 °F 64 °F  
Max Temperature 74 °F 76 °F 95 °F (1920)
Min Temperature 56 °F 52 °F 34 °F (1965)
Degree Days  
Heating Degree Days 0 4  
Month to date heating degree days 8 42  
Since 1 July heating degree days 15 45  
Cooling Degree Days 0 3  
Month to date cooling degree days 211 144  
Year to date cooling degree days 1296 1310  
Growing Degree Days 15 (Base 50)    
Moisture  
Dew Point 53 °F    
Average Humidity 68    
Maximum Humidity 86    
Minimum Humidity 49    
Precipitation  
Precipitation 0.00 in 0.09 in 1.47 in (1931)
Month to date precipitation 0.56 2.36  
Year to date precipitation 24.13 23.46  
Snow  
Snow 0.00 in 0.00 in T in (1951)
Month to date snowfall 0.0 0.0  
Year to date snowfall 20.3 13.7  
Since 1 July snowfall 0.0 0.0  
Snow Depth 0.00 in    
Sea Level Pressure  
Sea Level Pressure 29.82 in    
Wind  
Wind Speed 12 mph (NW)    
Max Wind Speed 25 mph    
Max Gust Speed 32 mph    
Visibility 10 miles    
Events      
T = Trace of Precipitation, MM = Missing Value Source: NWS Daily Summary

Daily Weather History Graph

Daily Weather History Graph

Search for Another Location

Airport or City:

Trip Planner

Search our weather history database for the weather conditions in past years. The results will help you decide how hot, cold, wet, or windy it might be!

Date:

Astronomy

Sep. 24, 2013 Rise Set
Actual Time 7:20 AM CDT 7:23 PM CDT
Civil Twilight 6:53 AM CDT 7:50 PM CDT
Nautical Twilight 6:22 AM CDT 8:22 PM CDT
Astronomical Twilight 5:50 AM CDT 8:53 PM CDT
Moon 10:43 PM CDT (9/24) 12:34 PM CDT (9/24)
Length of Visible Light 12h 57m
Length of Day
12h 03m
Waning Gibbous, 73% of the Moon is Illuminated
Sep 24
Waning Gibbous
Sep 26
Last Quarter
Oct 4
New
Oct 11
First Quarter
Oct 18
Full

Hourly Weather History & Observations

Time (CDT) Temp. Dew Point Humidity Pressure Visibility Wind Dir Wind Speed Gust Speed Precip Events Conditions
12:55 AM 62.1 °F 51.1 °F 67% 29.68 in 10.0 mi WSW 11.5 mph - N/A   Clear
1:18 AM 62.6 °F 51.8 °F 68% 29.71 in 10.0 mi SW 9.2 mph - N/A   Mostly Cloudy
1:43 AM 62.6 °F 51.8 °F 68% 29.71 in 10.0 mi WSW 11.5 mph - N/A   Scattered Clouds
1:55 AM 63.0 °F 52.0 °F 67% 29.68 in 10.0 mi WSW 13.8 mph 18.4 mph N/A   Mostly Cloudy
2:08 AM 62.6 °F 51.8 °F 68% 29.71 in 10.0 mi WSW 11.5 mph - N/A   Mostly Cloudy
2:55 AM 61.0 °F 53.1 °F 75% 29.68 in 10.0 mi West 16.1 mph - N/A   Scattered Clouds
3:28 AM 60.8 °F 53.6 °F 77% 29.72 in 10.0 mi West 12.7 mph - N/A   Mostly Cloudy
3:48 AM 60.8 °F 53.6 °F 77% 29.72 in 10.0 mi West 15.0 mph - N/A   Scattered Clouds
3:55 AM 60.1 °F 53.1 °F 78% 29.69 in 10.0 mi West 13.8 mph - N/A   Scattered Clouds
4:55 AM 60.1 °F 53.1 °F 78% 29.71 in 10.0 mi WNW 16.1 mph 23.0 mph N/A   Clear
5:55 AM 59.0 °F 53.1 °F 81% 29.74 in 10.0 mi WNW 12.7 mph - N/A   Clear
6:55 AM 57.9 °F 53.1 °F 84% 29.76 in 10.0 mi WNW 15.0 mph - N/A   Clear
7:55 AM 60.1 °F 54.0 °F 80% 29.80 in 10.0 mi NW 15.0 mph 26.5 mph N/A   Mostly Cloudy
8:55 AM 61.0 °F 54.0 °F 78% 29.82 in 10.0 mi NW 15.0 mph 25.3 mph N/A   Overcast
9:55 AM 64.0 °F 54.0 °F 70% 29.85 in 10.0 mi NNW 23.0 mph 32.2 mph N/A   Mostly Cloudy
10:06 AM 64.4 °F 53.6 °F 68% 29.88 in 10.0 mi NNW 18.4 mph 25.3 mph N/A   Scattered Clouds
10:19 AM 66.2 °F 53.6 °F 64% 29.89 in 10.0 mi NW 18.4 mph 26.5 mph N/A   Mostly Cloudy
10:55 AM 66.0 °F 54.0 °F 65% 29.88 in 10.0 mi NW 19.6 mph 26.5 mph N/A   Mostly Cloudy
11:55 AM 68.0 °F 54.0 °F 61% 29.89 in 10.0 mi NNW 18.4 mph 28.8 mph N/A   Overcast
12:04 PM 69.8 °F 53.6 °F 56% 29.91 in 10.0 mi NNW 16.1 mph 25.3 mph N/A   Overcast
12:36 PM 69.8 °F 53.6 °F 56% 29.91 in 10.0 mi NW 17.3 mph 26.5 mph N/A   Overcast
12:55 PM 69.1 °F 54.0 °F 58% 29.89 in 10.0 mi NNW 18.4 mph 28.8 mph N/A   Overcast
1:55 PM 69.1 °F 54.0 °F 58% 29.89 in 10.0 mi NNW 18.4 mph 26.5 mph N/A   Overcast
2:55 PM 70.0 °F 54.0 °F 57% 29.90 in 10.0 mi NW 16.1 mph - N/A   Overcast
3:55 PM 73.0 °F 54.0 °F 51% 29.88 in 10.0 mi North 12.7 mph 20.7 mph N/A   Overcast
4:55 PM 73.0 °F 53.1 °F 49% 29.88 in 10.0 mi North 12.7 mph 21.9 mph N/A   Overcast
5:55 PM 73.0 °F 54.0 °F 51% 29.89 in 10.0 mi North 11.5 mph - N/A   Mostly Cloudy
6:55 PM 69.1 °F 54.0 °F 58% 29.90 in 10.0 mi NNE 8.1 mph - N/A   Clear
7:55 PM 64.0 °F 54.0 °F 70% 29.90 in 10.0 mi Calm Calm - N/A   Clear
8:55 PM 63.0 °F 55.0 °F 75% 29.91 in 10.0 mi Calm Calm - N/A   Clear
9:55 PM 60.1 °F 53.1 °F 78% 29.91 in 10.0 mi North 3.5 mph - N/A   Clear
10:55 PM 59.0 °F 54.0 °F 83% 29.91 in 8.0 mi Calm Calm - N/A   Clear
11:55 PM 59.0 °F 54.0 °F 83% 29.91 in 8.0 mi Calm Calm - N/A   Clear